Weather History for KPAH - August, 2012

Change the Weather History Date:

Sunday, August 26, 2012

  Actual Average Record
Temperature  
Mean Temperature 82 °F 77 °F  
Max Temperature 93 °F 88 °F 104 °F (1943)
Min Temperature 71 °F 65 °F 52 °F (1958)
Degree Days  
Heating Degree Days 0 0  
Month to date heating degree days 0 0  
Since 1 June heating degree days 7 4  
Since 1 July heating degree days 0 0  
Cooling Degree Days 17 12  
Month to date cooling degree days 350 332  
Year to date cooling degree days 1702 1255  
Since 1 June cooling degree days 1319 1083  
Growing Degree Days 31 (Base 50)    
Moisture  
Dew Point 67 °F    
Average Humidity 63    
Maximum Humidity 84    
Minimum Humidity 41    
Precipitation  
Precipitation 0.06 in 0.08 in 0.48 in (1997)
Month to date precipitation 2.68 2.33  
Year to date precipitation 16.05 32.05  
Snow  
Snow 0.00 in 0.00 in - ()
Month to date snowfall 0.0 0.0  
Since 1 June snowfall 0.0 0.0  
Since 1 July snowfall 0.0 0.0  
Snow Depth 0.00 in    
Sea Level Pressure  
Sea Level Pressure 30.04 in    
Wind  
Wind Speed 5 mph (SSW)    
Max Wind Speed 18 mph    
Max Gust Speed 22 mph    
Visibility 9 miles    
Events Rain    
T = Trace of Precipitation, MM = Missing Value Source: NWS Daily Summary

Daily Weather History Graph

Daily Weather History Graph

Search for Another Location

Airport or City:

Trip Planner

Search our weather history database for the weather conditions in past years. The results will help you decide how hot, cold, wet, or windy it might be!

Date:

Astronomy

Aug. 26, 2012 Rise Set
Actual Time 6:21 AM CDT 7:31 PM CDT
Civil Twilight 5:54 AM CDT 7:58 PM CDT
Nautical Twilight 5:22 AM CDT 8:30 PM CDT
Astronomical Twilight 4:48 AM CDT 9:03 PM CDT
Moon 3:57 PM CDT (8/26) 1:06 AM CDT (8/26)
Length of Visible Light 14h 03m
Length of Day
13h 10m
Waxing Gibbous, 73% of the Moon is Illuminated
Aug 26
Waxing Gibbous
Aug 31
Full
Sep 8
Last Quarter
Sep 15
New
Sep 22
First Quarter

Hourly Weather History & Observations

Time (CDT) Temp. Heat Index Dew Point Humidity Pressure Visibility Wind Dir Wind Speed Gust Speed Precip Events Conditions
12:53 AM 72.0 °F - 66.0 °F 81% 30.04 in 10.0 mi SSE 5.8 mph - N/A   Clear
1:53 AM 72.0 °F - 64.9 °F 78% 30.03 in 10.0 mi South 4.6 mph - N/A   Mostly Cloudy
2:53 AM 72.0 °F - 64.9 °F 78% 30.04 in 10.0 mi Calm Calm - N/A   Overcast
3:53 AM 72.0 °F - 64.9 °F 78% 30.04 in 10.0 mi Calm Calm - N/A   Overcast
4:53 AM 72.0 °F - 66.0 °F 81% 30.05 in 10.0 mi Calm Calm - N/A   Overcast
5:53 AM 71.1 °F - 66.0 °F 84% 30.06 in 10.0 mi SE 3.5 mph - N/A   Overcast
6:53 AM 73.0 °F - 66.9 °F 81% 30.08 in 10.0 mi SSE 5.8 mph - N/A   Mostly Cloudy
7:48 AM 73.4 °F - 68.0 °F 83% 30.10 in 2.5 mi South 5.8 mph - 0.02 in Rain Light Rain
7:53 AM 73.0 °F - 68.0 °F 84% 30.10 in 4.0 mi South 4.6 mph - 0.02 in Rain Light Rain
8:40 AM 73.4 °F - 69.8 °F 88% 30.11 in 2.5 mi South 5.8 mph - 0.04 in Rain Light Rain
8:48 AM 73.4 °F - 69.8 °F 88% 30.11 in 5.0 mi South 3.5 mph - 0.04 in Rain Light Rain
8:53 AM 73.0 °F - 69.1 °F 87% 30.10 in 8.0 mi SSW 3.5 mph - 0.04 in   Overcast
9:53 AM 73.9 °F - 70.0 °F 87% 30.11 in 8.0 mi SSW 5.8 mph - 0.00 in Rain Light Rain
10:53 AM 79.0 °F - 70.0 °F 74% 30.11 in 10.0 mi South 5.8 mph - N/A   Scattered Clouds
11:53 AM 82.9 °F 86.5 °F 69.1 °F 63% 30.09 in 10.0 mi SW 6.9 mph - N/A   Partly Cloudy
12:53 PM 87.1 °F 90.6 °F 68.0 °F 53% 30.06 in 10.0 mi WSW 9.2 mph - N/A   Clear
1:53 PM 88.0 °F 89.6 °F 64.9 °F 46% 30.05 in 10.0 mi SW 9.2 mph - N/A   Mostly Cloudy
2:53 PM 89.6 °F 92.2 °F 66.2 °F 46% 30.03 in 10.0 mi South 10.4 mph 19.6 mph N/A   Scattered Clouds
3:53 PM 89.6 °F 91.1 °F 64.4 °F 43% 30.01 in 10.0 mi WSW 8.1 mph - N/A   Mostly Cloudy
4:53 PM 91.0 °F 92.6 °F 64.0 °F 41% 29.97 in 10.0 mi SW 13.8 mph 20.7 mph N/A   Partly Cloudy
5:53 PM 90.0 °F 91.7 °F 64.9 °F 43% 29.96 in 10.0 mi WSW 11.5 mph 16.1 mph N/A   Partly Cloudy
6:53 PM 88.0 °F 89.3 °F 64.0 °F 45% 29.96 in 10.0 mi SSW 4.6 mph - N/A   Clear
7:53 PM 84.0 °F 85.8 °F 64.9 °F 53% 29.97 in 10.0 mi SSW 3.5 mph - N/A   Clear
8:53 PM 80.1 °F 82.1 °F 66.0 °F 62% 29.99 in 10.0 mi Calm Calm - N/A   Clear
9:53 PM 81.0 °F 83.0 °F 66.0 °F 60% 30.02 in 10.0 mi South 3.5 mph - N/A   Overcast
10:53 PM 79.0 °F - 66.0 °F 64% 30.02 in 10.0 mi Calm Calm - N/A   Clear
11:53 PM 78.1 °F - 66.9 °F 68% 30.01 in 10.0 mi South 4.6 mph - N/A   Clear